owner,sensor,date,latitude,longitude,vertical_datum,mass_concentration_of_oxygen_in_sea_water,qcFlag 
DISL,ioos:station:DISL:PPTA:1,2017-11-01T00:30:00Z,30.2791,-87.5561,1.201,4.67,1111122 
DISL,ioos:station:DISL:PPTA:1,2017-11-01T01:30:00Z,30.2791,-87.5561,1.199,5.65,1111122 
DISL,ioos:station:DISL:PPTA:1,2017-11-01T02:30:00Z,30.2791,-87.5561,1.199,5.97,1111122 
DISL,ioos:station:DISL:PPTA:1,2017-11-01T03:30:00Z,30.2791,-87.5561,1.192,6.23,1111122 
DISL,ioos:station:DISL:PPTA:1,2017-11-01T04:30:00Z,30.2791,-87.5561,1.191,5.88,1111122 
DISL,ioos:station:DISL:PPTA:1,2017-11-01T05:30:00Z,30.2791,-87.5561,1.18,5.7,1111122 
DISL,ioos:station:DISL:PPTA:1,2017-11-01T06:30:00Z,30.2791,-87.5561,1.197,5.11,1111122 
DISL,ioos:station:DISL:PPTA:1,2017-11-01T07:30:00Z,30.2791,-87.5561,1.218,6.2,1111122 
DISL,ioos:station:DISL:PPTA:1,2017-11-01T08:30:00Z,30.2791,-87.5561,1.241,6.97,1111122 
DISL,ioos:station:DISL:PPTA:1,2017-11-01T09:30:00Z,30.2791,-87.5561,1.242,6.47,1111122 
DISL,ioos:station:DISL:PPTA:1,2017-11-01T10:30:00Z,30.2791,-87.5561,1.248,3.88,1111122 
DISL,ioos:station:DISL:PPTA:1,2017-11-01T11:30:00Z,30.2791,-87.5561,1.258,4.62,1111122 
DISL,ioos:station:DISL:PPTA:1,2017-11-01T12:30:00Z,30.2791,-87.5561,1.278,5.07,1111122 
DISL,ioos:station:DISL:PPTA:1,2017-11-01T13:30:00Z,30.2791,-87.5561,1.303,6.01,1111122 
DISL,ioos:station:DISL:PPTA:1,2017-11-01T14:30:00Z,30.2791,-87.5561,1.32,5.2,1111122 
DISL,ioos:station:DISL:PPTA:1,2017-11-01T15:30:00Z,30.2791,-87.5561,1.323,6.23,1111122 
DISL,ioos:station:DISL:PPTA:1,2017-11-01T16:30:00Z,30.2791,-87.5561,1.326,5.42,1111122 
DISL,ioos:station:DISL:PPTA:1,2017-11-01T17:30:00Z,30.2791,-87.5561,1.323,6.5,1111122 
DISL,ioos:station:DISL:PPTA:1,2017-11-01T18:30:00Z,30.2791,-87.5561,1.316,6.05,1111122 
DISL,ioos:station:DISL:PPTA:1,2017-11-01T19:30:00Z,30.2791,-87.5561,1.346,6.63,1111122 
DISL,ioos:station:DISL:PPTA:1,2017-11-01T20:30:00Z,30.2791,-87.5561,1.349,5.94,1111122 
DISL,ioos:station:DISL:PPTA:1,2017-11-01T21:30:00Z,30.2791,-87.5561,1.364,6.31,1111122 
DISL,ioos:station:DISL:PPTA:1,2017-11-01T22:30:00Z,30.2791,-87.5561,1.393,5.49,1111122 
DISL,ioos:station:DISL:PPTA:1,2017-11-01T23:30:00Z,30.2791,-87.5561,1.386,6.3,1111122 
DISL,ioos:station:DISL:PPTA:1,2017-11-02T00:30:00Z,30.2791,-87.5561,1.395,6.12,1111122 
DISL,ioos:station:DISL:PPTA:1,2017-11-02T01:30:00Z,30.2791,-87.5561,1.427,6.17,1111122 
DISL,ioos:station:DISL:PPTA:1,2017-11-02T02:30:00Z,30.2791,-87.5561,1.435,6.58,1111122 
DISL,ioos:station:DISL:PPTA:1,2017-11-02T03:30:00Z,30.2791,-87.5561,1.44,6.38,1111122 
DISL,ioos:station:DISL:PPTA:1,2017-11-02T04:30:00Z,30.2791,-87.5561,1.419,6.57,1111122 
DISL,ioos:station:DISL:PPTA:1,2017-11-02T05:30:00Z,30.2791,-87.5561,1.37,6.14,1111122 
DISL,ioos:station:DISL:PPTA:1,2017-11-02T06:30:00Z,30.2791,-87.5561,1.396,6.75,1111122 
DISL,ioos:station:DISL:PPTA:1,2017-11-02T07:30:00Z,30.2791,-87.5561,1.416,7.33,1111122 
DISL,ioos:station:DISL:PPTA:1,2017-11-02T08:30:00Z,30.2791,-87.5561,1.381,7.26,1111122 
DISL,ioos:station:DISL:PPTA:1,2017-11-02T09:30:00Z,30.2791,-87.5561,1.373,5.72,1111122 
DISL,ioos:station:DISL:PPTA:1,2017-11-02T10:30:00Z,30.2791,-87.5561,1.373,5.87,1111122 
DISL,ioos:station:DISL:PPTA:1,2017-11-02T11:30:00Z,30.2791,-87.5561,1.379,6.49,1111122 
DISL,ioos:station:DISL:PPTA:1,2017-11-02T12:30:00Z,30.2791,-87.5561,1.378,6.63,1111122 
DISL,ioos:station:DISL:PPTA:1,2017-11-02T13:30:00Z,30.2791,-87.5561,1.378,6.29,1111122 
DISL,ioos:station:DISL:PPTA:1,2017-11-02T14:30:00Z,30.2791,-87.5561,1.384,6.9,1111122 
DISL,ioos:station:DISL:PPTA:1,2017-11-02T15:30:00Z,30.2791,-87.5561,1.373,5.07,1111122 
DISL,ioos:station:DISL:PPTA:1,2017-11-02T16:30:00Z,30.2791,-87.5561,1.347,5.05,1111122 
DISL,ioos:station:DISL:PPTA:1,2017-11-02T17:30:00Z,30.2791,-87.5561,1.342,4.68,1111122 
DISL,ioos:station:DISL:PPTA:1,2017-11-02T18:30:00Z,30.2791,-87.5561,1.352,6.07,1111122 
DISL,ioos:station:DISL:PPTA:1,2017-11-02T19:30:00Z,30.2791,-87.5561,1.364,6.06,1111122 
DISL,ioos:station:DISL:PPTA:1,2017-11-02T20:30:00Z,30.2791,-87.5561,1.376,7.11,1111122 
DISL,ioos:station:DISL:PPTA:1,2017-11-02T21:30:00Z,30.2791,-87.5561,1.38,7.54,1111122 
DISL,ioos:station:DISL:PPTA:1,2017-11-02T22:30:00Z,30.2791,-87.5561,1.386,6.85,1111122 
DISL,ioos:station:DISL:PPTA:1,2017-11-02T23:30:00Z,30.2791,-87.5561,1.379,4.64,1111122 
DISL,ioos:station:DISL:PPTA:1,2017-11-03T00:30:00Z,30.2791,-87.5561,1.4,5.84,1111122 
DISL,ioos:station:DISL:PPTA:1,2017-11-03T01:30:00Z,30.2791,-87.5561,1.398,5.89,1111122 
DISL,ioos:station:DISL:PPTA:1,2017-11-03T02:30:00Z,30.2791,-87.5561,1.411,5.96,1111122 
DISL,ioos:station:DISL:PPTA:1,2017-11-03T03:30:00Z,30.2791,-87.5561,1.402,6.19,1111122 
DISL,ioos:station:DISL:PPTA:1,2017-11-03T04:30:00Z,30.2791,-87.5561,1.381,5.65,1111122 
DISL,ioos:station:DISL:PPTA:1,2017-11-03T05:30:00Z,30.2791,-87.5561,1.347,5.63,1111122 
DISL,ioos:station:DISL:PPTA:1,2017-11-03T06:30:00Z,30.2791,-87.5561,1.334,5.65,1111122 
DISL,ioos:station:DISL:PPTA:1,2017-11-03T07:30:00Z,30.2791,-87.5561,1.308,6.42,1111122 
DISL,ioos:station:DISL:PPTA:1,2017-11-03T08:30:00Z,30.2791,-87.5561,1.295,5.73,1111122 
DISL,ioos:station:DISL:PPTA:1,2017-11-03T09:30:00Z,30.2791,-87.5561,1.271,6.9,1111122 
DISL,ioos:station:DISL:PPTA:1,2017-11-03T10:30:00Z,30.2791,-87.5561,1.282,6.1,1111122 
DISL,ioos:station:DISL:PPTA:1,2017-11-03T11:30:00Z,30.2791,-87.5561,1.272,6.57,1111122 
DISL,ioos:station:DISL:PPTA:1,2017-11-03T12:30:00Z,30.2791,-87.5561,1.267,6.25,1111122 
DISL,ioos:station:DISL:PPTA:1,2017-11-03T13:30:00Z,30.2791,-87.5561,1.269,6.47,1111122 
DISL,ioos:station:DISL:PPTA:1,2017-11-03T14:30:00Z,30.2791,-87.5561,1.282,6.77,1111122 
DISL,ioos:station:DISL:PPTA:1,2017-11-03T15:30:00Z,30.2791,-87.5561,1.281,5.51,1111122 
DISL,ioos:station:DISL:PPTA:1,2017-11-03T16:30:00Z,30.2791,-87.5561,1.283,6.04,1111122 
DISL,ioos:station:DISL:PPTA:1,2017-11-03T17:30:00Z,30.2791,-87.5561,1.297,5.44,1111122 
DISL,ioos:station:DISL:PPTA:1,2017-11-03T18:30:00Z,30.2791,-87.5561,1.292,6.1,1111122 
DISL,ioos:station:DISL:PPTA:1,2017-11-03T19:30:00Z,30.2791,-87.5561,1.312,5.54,1111122 
DISL,ioos:station:DISL:PPTA:1,2017-11-03T20:30:00Z,30.2791,-87.5561,1.332,6.33,1111122 
DISL,ioos:station:DISL:PPTA:1,2017-11-03T21:30:00Z,30.2791,-87.5561,1.359,5.61,1111122 
DISL,ioos:station:DISL:PPTA:1,2017-11-03T22:30:00Z,30.2791,-87.5561,1.398,6.11,1111122 
DISL,ioos:station:DISL:PPTA:1,2017-11-03T23:30:00Z,30.2791,-87.5561,1.432,5.78,1111122 
DISL,ioos:station:DISL:PPTA:1,2017-11-04T00:30:00Z,30.2791,-87.5561,1.448,6.22,1111122 
DISL,ioos:station:DISL:PPTA:1,2017-11-04T01:30:00Z,30.2791,-87.5561,1.46,5.24,1111122 
DISL,ioos:station:DISL:PPTA:1,2017-11-04T02:30:00Z,30.2791,-87.5561,1.462,6.06,1111122 
DISL,ioos:station:DISL:PPTA:1,2017-11-04T03:30:00Z,30.2791,-87.5561,1.485,5.99,1111122 
DISL,ioos:station:DISL:PPTA:1,2017-11-04T04:30:00Z,30.2791,-87.5561,1.453,6.13,1111122 
DISL,ioos:station:DISL:PPTA:1,2017-11-04T05:30:00Z,30.2791,-87.5561,1.416,6.41,1111122 
DISL,ioos:station:DISL:PPTA:1,2017-11-04T06:30:00Z,30.2791,-87.5561,1.382,5.91,1111122 
DISL,ioos:station:DISL:PPTA:1,2017-11-04T07:30:00Z,30.2791,-87.5561,1.343,6.92,1111122 
DISL,ioos:station:DISL:PPTA:1,2017-11-04T08:30:00Z,30.2791,-87.5561,1.3,5.48,1111122 
DISL,ioos:station:DISL:PPTA:1,2017-11-04T09:30:00Z,30.2791,-87.5561,1.264,6.56,1111122 
DISL,ioos:station:DISL:PPTA:1,2017-11-04T10:30:00Z,30.2791,-87.5561,1.248,5.56,1111122 
DISL,ioos:station:DISL:PPTA:1,2017-11-04T11:30:00Z,30.2791,-87.5561,1.246,6.79,1111122 
DISL,ioos:station:DISL:PPTA:1,2017-11-04T12:30:00Z,30.2791,-87.5561,1.233,6.76,1111122 
DISL,ioos:station:DISL:PPTA:1,2017-11-04T13:30:00Z,30.2791,-87.5561,1.226,6.78,1111122 
DISL,ioos:station:DISL:PPTA:1,2017-11-04T14:30:00Z,30.2791,-87.5561,1.238,6.72,1111122 
DISL,ioos:station:DISL:PPTA:1,2017-11-04T15:30:00Z,30.2791,-87.5561,1.24,6.57,1111122 
DISL,ioos:station:DISL:PPTA:1,2017-11-04T16:30:00Z,30.2791,-87.5561,1.251,6.73,1111122 
DISL,ioos:station:DISL:PPTA:1,2017-11-04T17:30:00Z,30.2791,-87.5561,1.243,5.18,1111122 
DISL,ioos:station:DISL:PPTA:1,2017-11-04T18:30:00Z,30.2791,-87.5561,1.232,6.15,1111122 
DISL,ioos:station:DISL:PPTA:1,2017-11-04T19:30:00Z,30.2791,-87.5561,1.256,5.2,1111122 
DISL,ioos:station:DISL:PPTA:1,2017-11-04T20:30:00Z,30.2791,-87.5561,1.278,5.9,1111122 
DISL,ioos:station:DISL:PPTA:1,2017-11-04T21:30:00Z,30.2791,-87.5561,1.311,6.0,1111122 
DISL,ioos:station:DISL:PPTA:1,2017-11-04T22:30:00Z,30.2791,-87.5561,1.355,6.29,1111122 
DISL,ioos:station:DISL:PPTA:1,2017-11-04T23:30:00Z,30.2791,-87.5561,1.395,6.45,1111122 
DISL,ioos:station:DISL:PPTA:1,2017-11-05T00:30:00Z,30.2791,-87.5561,1.432,5.83,1111122 
DISL,ioos:station:DISL:PPTA:1,2017-11-05T01:30:00Z,30.2791,-87.5561,1.46,6.24,1111122 
DISL,ioos:station:DISL:PPTA:1,2017-11-05T02:30:00Z,30.2791,-87.5561,1.469,5.64,1111122 
DISL,ioos:station:DISL:PPTA:1,2017-11-05T03:30:00Z,30.2791,-87.5561,1.479,6.34,1111122 
DISL,ioos:station:DISL:PPTA:1,2017-11-05T04:30:00Z,30.2791,-87.5561,1.489,5.27,1111122 
DISL,ioos:station:DISL:PPTA:1,2017-11-05T05:30:00Z,30.2791,-87.5561,1.461,5.96,1111122 
DISL,ioos:station:DISL:PPTA:1,2017-11-05T06:30:00Z,30.2791,-87.5561,1.412,6.24,1111122 
DISL,ioos:station:DISL:PPTA:1,2017-11-05T08:30:00Z,30.2791,-87.5561,1.352,6.69,1111122 
DISL,ioos:station:DISL:PPTA:1,2017-11-05T09:30:00Z,30.2791,-87.5561,1.311,5.29,1111122 
DISL,ioos:station:DISL:PPTA:1,2017-11-05T10:30:00Z,30.2791,-87.5561,1.263,6.02,1111122 
DISL,ioos:station:DISL:PPTA:1,2017-11-05T11:30:00Z,30.2791,-87.5561,1.263,6.39,1111122 
DISL,ioos:station:DISL:PPTA:1,2017-11-05T12:30:00Z,30.2791,-87.5561,1.244,6.38,1111122 
DISL,ioos:station:DISL:PPTA:1,2017-11-05T13:30:00Z,30.2791,-87.5561,1.223,6.09,1111122 
DISL,ioos:station:DISL:PPTA:1,2017-11-05T14:30:00Z,30.2791,-87.5561,1.227,6.18,1111122 
DISL,ioos:station:DISL:PPTA:1,2017-11-05T15:30:00Z,30.2791,-87.5561,1.219,6.12,1111122 
DISL,ioos:station:DISL:PPTA:1,2017-11-05T16:30:00Z,30.2791,-87.5561,1.248,6.13,1111122 
DISL,ioos:station:DISL:PPTA:1,2017-11-05T17:30:00Z,30.2791,-87.5561,1.26,6.33,1111122 
DISL,ioos:station:DISL:PPTA:1,2017-11-05T18:30:00Z,30.2791,-87.5561,1.241,5.86,1111122 
DISL,ioos:station:DISL:PPTA:1,2017-11-05T19:30:00Z,30.2791,-87.5561,1.251,6.08,1111122 
DISL,ioos:station:DISL:PPTA:1,2017-11-05T20:30:00Z,30.2791,-87.5561,1.284,6.27,1111122 
DISL,ioos:station:DISL:PPTA:1,2017-11-05T21:30:00Z,30.2791,-87.5561,1.321,5.68,1111122 
DISL,ioos:station:DISL:PPTA:1,2017-11-05T22:30:00Z,30.2791,-87.5561,1.358,6.61,1111122 
DISL,ioos:station:DISL:PPTA:1,2017-11-05T23:30:00Z,30.2791,-87.5561,1.399,5.78,1111122 
DISL,ioos:station:DISL:PPTA:1,2017-11-06T00:30:00Z,30.2791,-87.5561,1.452,6.19,1111122 
DISL,ioos:station:DISL:PPTA:1,2017-11-06T01:30:00Z,30.2791,-87.5561,1.486,6.45,1111122 
DISL,ioos:station:DISL:PPTA:1,2017-11-06T02:30:00Z,30.2791,-87.5561,1.508,6.1,1111122 
DISL,ioos:station:DISL:PPTA:1,2017-11-06T03:30:00Z,30.2791,-87.5561,1.523,6.61,1111122 
DISL,ioos:station:DISL:PPTA:1,2017-11-06T04:30:00Z,30.2791,-87.5561,1.534,5.26,1111122 
DISL,ioos:station:DISL:PPTA:1,2017-11-06T05:30:00Z,30.2791,-87.5561,1.523,6.3,1111122 
DISL,ioos:station:DISL:PPTA:1,2017-11-06T06:30:00Z,30.2791,-87.5561,1.491,6.1,1111122 
DISL,ioos:station:DISL:PPTA:1,2017-11-06T07:30:00Z,30.2791,-87.5561,1.443,6.45,1111122 
DISL,ioos:station:DISL:PPTA:1,2017-11-06T08:30:00Z,30.2791,-87.5561,1.401,6.3,1111122 
DISL,ioos:station:DISL:PPTA:1,2017-11-06T09:00:00Z,30.2791,-87.5561,1.37,6.01,1111122 
DISL,ioos:station:DISL:PPTA:1,2017-11-06T10:30:00Z,30.2791,-87.5561,1.312,6.21,1111122 
DISL,ioos:station:DISL:PPTA:1,2017-11-06T11:30:00Z,30.2791,-87.5561,1.279,6.07,1111122 
DISL,ioos:station:DISL:PPTA:1,2017-11-06T12:30:00Z,30.2791,-87.5561,1.244,6.28,1111122 
DISL,ioos:station:DISL:PPTA:1,2017-11-06T13:30:00Z,30.2791,-87.5561,1.224,6.15,1111122 
DISL,ioos:station:DISL:PPTA:1,2017-11-06T14:30:00Z,30.2791,-87.5561,1.19,6.27,1111122 
DISL,ioos:station:DISL:PPTA:1,2017-11-06T15:30:00Z,30.2791,-87.5561,1.178,6.37,1111122 
DISL,ioos:station:DISL:PPTA:1,2017-11-06T16:30:00Z,30.2791,-87.5561,1.189,5.68,1111122 
DISL,ioos:station:DISL:PPTA:1,2017-11-06T17:30:00Z,30.2791,-87.5561,1.201,6.62,1111122 
DISL,ioos:station:DISL:PPTA:1,2017-11-06T18:30:00Z,30.2791,-87.5561,1.209,6.0,1111122 
DISL,ioos:station:DISL:PPTA:1,2017-11-06T19:30:00Z,30.2791,-87.5561,1.198,6.39,1111122 
DISL,ioos:station:DISL:PPTA:1,2017-11-06T20:30:00Z,30.2791,-87.5561,1.205,6.59,1111122 
DISL,ioos:station:DISL:PPTA:1,2017-11-06T21:30:00Z,30.2791,-87.5561,1.227,5.85,1111122 
DISL,ioos:station:DISL:PPTA:1,2017-11-06T22:30:00Z,30.2791,-87.5561,1.257,6.4,1111122 
DISL,ioos:station:DISL:PPTA:1,2017-11-06T23:30:00Z,30.2791,-87.5561,1.3,5.52,1111122 
DISL,ioos:station:DISL:PPTA:1,2017-11-07T00:30:00Z,30.2791,-87.5561,1.352,6.45,1111122 
DISL,ioos:station:DISL:PPTA:1,2017-11-07T01:30:00Z,30.2791,-87.5561,1.396,6.2,1111122 
DISL,ioos:station:DISL:PPTA:1,2017-11-07T02:30:00Z,30.2791,-87.5561,1.432,6.1,1111122 
DISL,ioos:station:DISL:PPTA:1,2017-11-07T03:30:00Z,30.2791,-87.5561,1.455,6.3,1111122 
DISL,ioos:station:DISL:PPTA:1,2017-11-07T04:30:00Z,30.2791,-87.5561,1.456,5.95,1111122 
DISL,ioos:station:DISL:PPTA:1,2017-11-07T05:30:00Z,30.2791,-87.5561,1.464,6.07,1111122 
DISL,ioos:station:DISL:PPTA:1,2017-11-07T06:30:00Z,30.2791,-87.5561,1.474,5.46,1111122 
DISL,ioos:station:DISL:PPTA:1,2017-11-07T07:30:00Z,30.2791,-87.5561,1.439,5.8,1111122 
DISL,ioos:station:DISL:PPTA:1,2017-11-07T08:30:00Z,30.2791,-87.5561,1.389,6.19,1111122 
DISL,ioos:station:DISL:PPTA:1,2017-11-07T09:30:00Z,30.2791,-87.5561,1.342,5.39,1111122 
DISL,ioos:station:DISL:PPTA:1,2017-11-07T10:30:00Z,30.2791,-87.5561,1.314,6.07,1111122 
DISL,ioos:station:DISL:PPTA:1,2017-11-07T11:30:00Z,30.2791,-87.5561,1.283,6.2,1111122 
DISL,ioos:station:DISL:PPTA:1,2017-11-07T12:30:00Z,30.2791,-87.5561,1.253,6.04,1111122 
DISL,ioos:station:DISL:PPTA:1,2017-11-07T13:30:00Z,30.2791,-87.5561,1.229,6.06,1111122 
DISL,ioos:station:DISL:PPTA:1,2017-11-07T14:30:00Z,30.2791,-87.5561,1.194,5.19,1111122 
DISL,ioos:station:DISL:PPTA:1,2017-11-07T15:30:00Z,30.2791,-87.5561,1.173,6.11,1111122 
DISL,ioos:station:DISL:PPTA:1,2017-11-07T16:30:00Z,30.2791,-87.5561,1.189,6.19,1111122 
DISL,ioos:station:DISL:PPTA:1,2017-11-07T17:30:00Z,30.2791,-87.5561,1.191,6.57,1111122 
DISL,ioos:station:DISL:PPTA:1,2017-11-07T18:30:00Z,30.2791,-87.5561,1.182,6.22,1111122 
DISL,ioos:station:DISL:PPTA:1,2017-11-07T19:30:00Z,30.2791,-87.5561,1.204,5.26,1111122 
DISL,ioos:station:DISL:PPTA:1,2017-11-07T20:30:00Z,30.2791,-87.5561,1.212,6.16,1111122 
DISL,ioos:station:DISL:PPTA:1,2017-11-07T21:30:00Z,30.2791,-87.5561,1.229,6.14,1111122 
DISL,ioos:station:DISL:PPTA:1,2017-11-07T22:30:00Z,30.2791,-87.5561,1.265,6.14,1111122 
DISL,ioos:station:DISL:PPTA:1,2017-11-07T23:30:00Z,30.2791,-87.5561,1.303,6.33,1111122 
DISL,ioos:station:DISL:PPTA:1,2017-11-08T00:30:00Z,30.2791,-87.5561,1.36,4.9,1111122 
DISL,ioos:station:DISL:PPTA:1,2017-11-08T01:30:00Z,30.2791,-87.5561,1.403,5.71,1111122 
DISL,ioos:station:DISL:PPTA:1,2017-11-08T02:30:00Z,30.2791,-87.5561,1.434,5.23,1111122 
DISL,ioos:station:DISL:PPTA:1,2017-11-08T03:30:00Z,30.2791,-87.5561,1.462,5.08,1111122 
DISL,ioos:station:DISL:PPTA:1,2017-11-08T05:30:00Z,30.2791,-87.5561,1.497,4.5,1111122 
DISL,ioos:station:DISL:PPTA:1,2017-11-08T06:30:00Z,30.2791,-87.5561,1.5,5.23,1111122 
DISL,ioos:station:DISL:PPTA:1,2017-11-08T07:30:00Z,30.2791,-87.5561,1.497,5.08,1111122 
DISL,ioos:station:DISL:PPTA:1,2017-11-08T08:30:00Z,30.2791,-87.5561,1.452,4.88,1111122 
DISL,ioos:station:DISL:PPTA:1,2017-11-08T09:30:00Z,30.2791,-87.5561,1.395,5.27,1111122 
DISL,ioos:station:DISL:PPTA:1,2017-11-08T10:30:00Z,30.2791,-87.5561,1.36,4.52,1111122 
DISL,ioos:station:DISL:PPTA:1,2017-11-08T11:30:00Z,30.2791,-87.5561,1.33,5.84,1111122 
DISL,ioos:station:DISL:PPTA:1,2017-11-08T12:30:00Z,30.2791,-87.5561,1.294,5.34,1111122 
DISL,ioos:station:DISL:PPTA:1,2017-11-08T13:30:00Z,30.2791,-87.5561,1.256,5.06,1111122 
DISL,ioos:station:DISL:PPTA:1,2017-11-08T14:30:00Z,30.2791,-87.5561,1.245,5.76,1111122 
DISL,ioos:station:DISL:PPTA:1,2017-11-08T15:30:00Z,30.2791,-87.5561,1.207,4.84,1111122 
DISL,ioos:station:DISL:PPTA:1,2017-11-08T16:30:00Z,30.2791,-87.5561,1.182,5.94,1111122 
DISL,ioos:station:DISL:PPTA:1,2017-11-08T17:30:00Z,30.2791,-87.5561,1.178,6.02,1111122 
DISL,ioos:station:DISL:PPTA:1,2017-11-08T18:30:00Z,30.2791,-87.5561,1.187,5.85,1111122 
DISL,ioos:station:DISL:PPTA:1,2017-11-08T19:30:00Z,30.2791,-87.5561,1.204,5.89,1111122 
DISL,ioos:station:DISL:PPTA:1,2017-11-08T20:30:00Z,30.2791,-87.5561,1.206,5.97,1111122 
DISL,ioos:station:DISL:PPTA:1,2017-11-08T21:30:00Z,30.2791,-87.5561,1.224,6.5,1111122 
DISL,ioos:station:DISL:PPTA:1,2017-11-08T22:30:00Z,30.2791,-87.5561,1.225,5.39,1111122 
DISL,ioos:station:DISL:PPTA:1,2017-11-08T23:30:00Z,30.2791,-87.5561,1.269,4.97,1111122 
DISL,ioos:station:DISL:PPTA:1,2017-11-09T00:30:00Z,30.2791,-87.5561,1.304,5.52,1111122 
DISL,ioos:station:DISL:PPTA:1,2017-11-09T01:30:00Z,30.2791,-87.5561,1.345,5.25,1111122 
DISL,ioos:station:DISL:PPTA:1,2017-11-09T02:30:00Z,30.2791,-87.5561,1.392,4.98,1111122 
DISL,ioos:station:DISL:PPTA:1,2017-11-09T03:30:00Z,30.2791,-87.5561,1.431,5.05,1111122 
DISL,ioos:station:DISL:PPTA:1,2017-11-09T04:30:00Z,30.2791,-87.5561,1.449,4.34,1111122 
DISL,ioos:station:DISL:PPTA:1,2017-11-09T05:30:00Z,30.2791,-87.5561,1.462,5.17,1111122 
DISL,ioos:station:DISL:PPTA:1,2017-11-09T06:30:00Z,30.2791,-87.5561,1.475,4.78,1111122 
DISL,ioos:station:DISL:PPTA:1,2017-11-09T07:30:00Z,30.2791,-87.5561,1.485,4.53,1111122 
DISL,ioos:station:DISL:PPTA:1,2017-11-09T08:30:00Z,30.2791,-87.5561,1.478,4.62,1111122 
DISL,ioos:station:DISL:PPTA:1,2017-11-09T09:30:00Z,30.2791,-87.5561,1.424,4.11,1111122 
DISL,ioos:station:DISL:PPTA:1,2017-11-09T10:30:00Z,30.2791,-87.5561,1.407,5.35,1111122 
DISL,ioos:station:DISL:PPTA:1,2017-11-09T11:30:00Z,30.2791,-87.5561,1.36,4.89,1111122 
DISL,ioos:station:DISL:PPTA:1,2017-11-09T12:30:00Z,30.2791,-87.5561,1.324,5.97,1111122 
DISL,ioos:station:DISL:PPTA:1,2017-11-09T13:30:00Z,30.2791,-87.5561,1.3,6.0,1111122 
DISL,ioos:station:DISL:PPTA:1,2017-11-09T14:30:00Z,30.2791,-87.5561,1.239,5.49,1111122 
DISL,ioos:station:DISL:PPTA:1,2017-11-09T15:30:00Z,30.2791,-87.5561,1.206,6.29,1111122 
DISL,ioos:station:DISL:PPTA:1,2017-11-09T16:30:00Z,30.2791,-87.5561,1.209,5.6,1111122 
DISL,ioos:station:DISL:PPTA:1,2017-11-09T17:30:00Z,30.2791,-87.5561,1.201,6.45,1111122 
DISL,ioos:station:DISL:PPTA:1,2017-11-09T18:30:00Z,30.2791,-87.5561,1.18,6.56,1111122 
DISL,ioos:station:DISL:PPTA:1,2017-11-09T19:30:00Z,30.2791,-87.5561,1.187,6.77,1111122 
DISL,ioos:station:DISL:PPTA:1,2017-11-09T20:30:00Z,30.2791,-87.5561,1.212,7.12,1111122 
DISL,ioos:station:DISL:PPTA:1,2017-11-09T21:30:00Z,30.2791,-87.5561,1.222,6.3,1111122 
DISL,ioos:station:DISL:PPTA:1,2017-11-09T22:30:00Z,30.2791,-87.5561,1.213,6.56,1111122 
DISL,ioos:station:DISL:PPTA:1,2017-11-09T23:30:00Z,30.2791,-87.5561,1.215,5.62,1111122 
DISL,ioos:station:DISL:PPTA:1,2017-11-10T00:30:00Z,30.2791,-87.5561,1.234,5.35,1111122 
DISL,ioos:station:DISL:PPTA:1,2017-11-10T01:30:00Z,30.2791,-87.5561,1.27,5.52,1111122 
DISL,ioos:station:DISL:PPTA:1,2017-11-10T02:30:00Z,30.2791,-87.5561,1.314,4.27,1111122 
DISL,ioos:station:DISL:PPTA:1,2017-11-10T03:30:00Z,30.2791,-87.5561,1.34,5.0,1111122 
DISL,ioos:station:DISL:PPTA:1,2017-11-10T04:30:00Z,30.2791,-87.5561,1.366,4.79,1111122 
DISL,ioos:station:DISL:PPTA:1,2017-11-10T05:30:00Z,30.2791,-87.5561,1.391,4.38,1111122 
DISL,ioos:station:DISL:PPTA:1,2017-11-10T06:30:00Z,30.2791,-87.5561,1.407,4.96,1111122 
DISL,ioos:station:DISL:PPTA:1,2017-11-10T07:30:00Z,30.2791,-87.5561,1.407,4.26,1111122 
DISL,ioos:station:DISL:PPTA:1,2017-11-10T08:30:00Z,30.2791,-87.5561,1.421,4.78,1111122 
DISL,ioos:station:DISL:PPTA:1,2017-11-10T09:30:00Z,30.2791,-87.5561,1.41,4.4,1111122 
DISL,ioos:station:DISL:PPTA:1,2017-11-10T10:30:00Z,30.2791,-87.5561,1.398,3.89,1111122 
DISL,ioos:station:DISL:PPTA:1,2017-11-10T11:30:00Z,30.2791,-87.5561,1.343,4.9,1111122 
DISL,ioos:station:DISL:PPTA:1,2017-11-10T12:30:00Z,30.2791,-87.5561,1.318,4.98,1111122 
DISL,ioos:station:DISL:PPTA:1,2017-11-10T13:30:00Z,30.2791,-87.5561,1.302,6.19,1111122 
DISL,ioos:station:DISL:PPTA:1,2017-11-10T14:30:00Z,30.2791,-87.5561,1.259,5.32,1111122 
DISL,ioos:station:DISL:PPTA:1,2017-11-10T15:30:00Z,30.2791,-87.5561,1.267,5.7,1111122 
DISL,ioos:station:DISL:PPTA:1,2017-11-10T16:30:00Z,30.2791,-87.5561,1.237,6.46,1111122 
DISL,ioos:station:DISL:PPTA:1,2017-11-10T17:30:00Z,30.2791,-87.5561,1.213,5.88,1111122 
DISL,ioos:station:DISL:PPTA:1,2017-11-10T18:30:00Z,30.2791,-87.5561,1.186,6.63,1111122 
DISL,ioos:station:DISL:PPTA:1,2017-11-10T19:30:00Z,30.2791,-87.5561,1.188,6.86,1111122 
DISL,ioos:station:DISL:PPTA:1,2017-11-10T20:30:00Z,30.2791,-87.5561,1.192,6.98,1111122 
DISL,ioos:station:DISL:PPTA:1,2017-11-10T21:30:00Z,30.2791,-87.5561,1.201,7.21,1111122 
DISL,ioos:station:DISL:PPTA:1,2017-11-10T22:30:00Z,30.2791,-87.5561,1.22,7.47,1111122 
DISL,ioos:station:DISL:PPTA:1,2017-11-10T23:30:00Z,30.2791,-87.5561,1.211,6.63,1111122 
DISL,ioos:station:DISL:PPTA:1,2017-11-11T00:30:00Z,30.2791,-87.5561,1.211,5.4,1111122 
DISL,ioos:station:DISL:PPTA:1,2017-11-11T01:30:00Z,30.2791,-87.5561,1.236,6.02,1111122 
DISL,ioos:station:DISL:PPTA:1,2017-11-11T02:30:00Z,30.2791,-87.5561,1.255,5.62,1111122 
DISL,ioos:station:DISL:PPTA:1,2017-11-11T03:30:00Z,30.2791,-87.5561,1.276,5.95,1111122 
DISL,ioos:station:DISL:PPTA:1,2017-11-11T04:30:00Z,30.2791,-87.5561,1.317,5.87,1111122 
DISL,ioos:station:DISL:PPTA:1,2017-11-11T05:30:00Z,30.2791,-87.5561,1.343,5.5,1111122 
DISL,ioos:station:DISL:PPTA:1,2017-11-11T06:30:00Z,30.2791,-87.5561,1.377,5.96,1111122 
DISL,ioos:station:DISL:PPTA:1,2017-11-11T07:30:00Z,30.2791,-87.5561,1.382,5.86,1111122 
DISL,ioos:station:DISL:PPTA:1,2017-11-11T08:30:00Z,30.2791,-87.5561,1.386,5.91,1111122 
DISL,ioos:station:DISL:PPTA:1,2017-11-11T09:30:00Z,30.2791,-87.5561,1.398,5.99,1111122 
DISL,ioos:station:DISL:PPTA:1,2017-11-11T10:30:00Z,30.2791,-87.5561,1.407,5.73,1111122 
DISL,ioos:station:DISL:PPTA:1,2017-11-11T11:30:00Z,30.2791,-87.5561,1.4,6.03,1111122 
DISL,ioos:station:DISL:PPTA:1,2017-11-11T12:30:00Z,30.2791,-87.5561,1.374,5.61,1111122 
DISL,ioos:station:DISL:PPTA:1,2017-11-11T13:30:00Z,30.2791,-87.5561,1.354,6.38,1111122 
DISL,ioos:station:DISL:PPTA:1,2017-11-11T14:30:00Z,30.2791,-87.5561,1.355,6.42,1111122 
DISL,ioos:station:DISL:PPTA:1,2017-11-11T15:30:00Z,30.2791,-87.5561,1.332,6.92,1111122 
DISL,ioos:station:DISL:PPTA:1,2017-11-11T16:30:00Z,30.2791,-87.5561,1.31,6.43,1111122 
DISL,ioos:station:DISL:PPTA:1,2017-11-11T17:30:00Z,30.2791,-87.5561,1.303,7.05,1111122 
DISL,ioos:station:DISL:PPTA:1,2017-11-11T18:30:00Z,30.2791,-87.5561,1.297,7.13,1111122 
DISL,ioos:station:DISL:PPTA:1,2017-11-11T19:30:00Z,30.2791,-87.5561,1.294,7.14,1111122 
DISL,ioos:station:DISL:PPTA:1,2017-11-11T20:30:00Z,30.2791,-87.5561,1.297,7.6,1111122 
DISL,ioos:station:DISL:PPTA:1,2017-11-11T21:30:00Z,30.2791,-87.5561,1.308,7.19,1111122 
DISL,ioos:station:DISL:PPTA:1,2017-11-11T22:30:00Z,30.2791,-87.5561,1.31,6.89,1111122 
DISL,ioos:station:DISL:PPTA:1,2017-11-11T23:30:00Z,30.2791,-87.5561,1.317,6.26,1111122 
DISL,ioos:station:DISL:PPTA:1,2017-11-12T00:30:00Z,30.2791,-87.5561,1.339,6.79,1111122 
DISL,ioos:station:DISL:PPTA:1,2017-11-12T01:30:00Z,30.2791,-87.5561,1.385,6.39,1111122 
DISL,ioos:station:DISL:PPTA:1,2017-11-12T02:30:00Z,30.2791,-87.5561,1.381,6.4,1111122 
DISL,ioos:station:DISL:PPTA:1,2017-11-12T03:30:00Z,30.2791,-87.5561,1.413,6.3,1111122 
DISL,ioos:station:DISL:PPTA:1,2017-11-12T04:30:00Z,30.2791,-87.5561,1.435,6.05,1111122 
DISL,ioos:station:DISL:PPTA:1,2017-11-12T05:30:00Z,30.2791,-87.5561,1.45,6.42,1111122 
DISL,ioos:station:DISL:PPTA:1,2017-11-12T06:30:00Z,30.2791,-87.5561,1.476,5.79,1111122 
DISL,ioos:station:DISL:PPTA:1,2017-11-12T07:30:00Z,30.2791,-87.5561,1.457,6.51,1111122 
DISL,ioos:station:DISL:PPTA:1,2017-11-12T08:30:00Z,30.2791,-87.5561,1.435,6.46,1111122 
DISL,ioos:station:DISL:PPTA:1,2017-11-12T09:30:00Z,30.2791,-87.5561,1.457,6.56,1111122 